| time (UTC) | temp C | wind direction | speed KPH | gust KPH | rain 1hr cm | rain 24hr cm | rain mn cm | humidity % | barometer mb |
| 20260506013557 | 25 | 169 | 6.4 | 17.7 | 0.00 | 0.00 | 0.00 | 80 | 1007.7 |
| 20260506013057 | 25 | 166 | 6.4 | 17.7 | 0.00 | 0.00 | 0.00 | 80 | 1007.6 |
| 20260506012559 | 25 | 155 | 6.4 | 16.1 | 0.00 | 0.00 | 0.00 | 79 | 1007.5 |
| 20260506012057 | 26 | 146 | 6.4 | 17.7 | 0.00 | 0.00 | 0.00 | 79 | 1007.3 |
| 20260506011607 | 26 | 171 | 6.4 | 24.1 | 0.00 | 0.00 | 0.00 | 79 | 1007.2 |
| 20260506011057 | 26 | 165 | 8.0 | 24.1 | 0.00 | 0.00 | 0.00 | 78 | 1007.2 |
| 20260506010601 | 26 | 114 | 8.0 | 19.3 | 0.00 | 0.00 | 0.00 | 78 | 1007.2 |
| 20260506010059 | 26 | 163 | 6.4 | 16.1 | 0.00 | 0.00 | 0.00 | 78 | 1007.1 |
| 20260506005556 | 26 | 180 | 3.2 | 17.7 | 0.00 | 0.00 | 0.00 | 77 | 1007.1 |
| 20260506005056 | 26 | 194 | 8.0 | 19.3 | 0.00 | 0.00 | 0.00 | 77 | 1007.0 |
| 20260506004559 | 26 | 170 | 11.3 | 19.3 | 0.00 | 0.00 | 0.00 | 77 | 1007.1 |
| 20260506004056 | 26 | 152 | 4.8 | 14.5 | 0.00 | 0.00 | 0.00 | 77 | 1007.1 |
| 20260506003556 | 26 | 118 | 6.4 | 24.1 | 0.00 | 0.00 | 0.00 | 77 | 1006.9 |
| 20260506003056 | 26 | 178 | 9.7 | 24.1 | 0.00 | 0.00 | 0.00 | 76 | 1006.8 |
| 20260506002558 | 26 | 183 | 6.4 | 16.1 | 0.00 | 0.00 | 0.00 | 76 | 1006.8 |
| 20260506002055 | 26 | 171 | 9.7 | 17.7 | 0.00 | 0.00 | 0.00 | 75 | 1006.8 |
| 20260506001555 | 26 | 170 | 6.4 | 16.1 | 0.00 | 0.00 | 0.00 | 75 | 1006.9 |
| 20260506001056 | 26 | 155 | 8.0 | 16.1 | 0.00 | 0.00 | 0.00 | 75 | 1006.8 |
| 20260506000556 | 26 | 207 | 6.4 | 17.7 | 0.00 | 0.00 | 0.00 | 75 | 1006.9 |
| 20260506000100 | 26 | 145 | 6.4 | 24.1 | 0.00 | 0.00 | 0.00 | 74 | 1006.9 |
| 20260505235555 | 26 | 162 | 9.7 | 24.1 | 0.00 | 0.00 | 0.00 | 74 | 1006.9 |
| 20260505235055 | 26 | 165 | 8.0 | 20.9 | 0.00 | 0.00 | 0.00 | 75 | 1006.9 |
| 20260505234603 | 27 | 189 | 9.7 | 20.9 | 0.00 | 0.00 | 0.00 | 74 | 1006.8 |
| 20260505234054 | 27 | 136 | 8.0 | 16.1 | 0.00 | 0.00 | 0.00 | 74 | 1006.7 |
| 20260505233554 | 27 | 250 | 8.0 | 16.1 | 0.00 | 0.00 | 0.00 | 75 | 1006.7 |
| 20260505233108 | 27 | 163 | 9.7 | 17.7 | 0.00 | 0.00 | 0.00 | 74 | 1006.7 |
| 20260505232554 | 27 | 167 | 8.0 | 17.7 | 0.00 | 0.00 | 0.00 | 74 | 1006.8 |
| 20260505232055 | 27 | 178 | 9.7 | 19.3 | 0.00 | 0.00 | 0.00 | 74 | 1006.9 |
| 20260505231556 | 27 | 190 | 11.3 | 17.7 | 0.00 | 0.00 | 0.00 | 73 | 1006.8 |
| 20260505231054 | 27 | 169 | 6.4 | 22.5 | 0.00 | 0.00 | 0.00 | 74 | 1006.8 |
| 20260505230552 | 27 | 140 | 8.0 | 22.5 | 0.00 | 0.00 | 0.00 | 73 | 1006.9 |
| 20260505230053 | 27 | 179 | 8.0 | 20.9 | 0.00 | 0.00 | 0.00 | 74 | 1006.8 |
| 20260505225552 | 27 | 216 | 11.3 | 20.9 | 0.00 | 0.00 | 0.00 | 74 | 1006.8 |
| 20260505225052 | 27 | 182 | 8.0 | 25.7 | 0.00 | 0.00 | 0.00 | 74 | 1006.9 |
| 20260505224553 | 27 | 155 | 9.7 | 24.1 | 0.00 | 0.00 | 0.00 | 74 | 1006.8 |
| 20260505224051 | 27 | 167 | 9.7 | 24.1 | 0.00 | 0.00 | 0.00 | 74 | 1006.8 |
| 20260505223550 | 27 | 168 | 8.0 | 17.7 | 0.00 | 0.00 | 0.00 | 74 | 1006.9 |
| 20260505223053 | 27 | 178 | 4.8 | 17.7 | 0.00 | 0.00 | 0.00 | 73 | 1006.9 |
| 20260505222550 | 27 | 180 | 8.0 | 24.1 | 0.00 | 0.00 | 0.00 | 73 | 1006.9 |
| 20260505222050 | 27 | 168 | 12.9 | 24.1 | 0.00 | 0.00 | 0.00 | 73 | 1006.9 |
| 20260505221550 | 27 | 155 | 12.9 | 22.5 | 0.00 | 0.00 | 0.00 | 73 | 1007.0 |
| 20260505221049 | 27 | 184 | 11.3 | 22.5 | 0.00 | 0.00 | 0.00 | 73 | 1006.9 |
| 20260505220548 | 28 | 178 | 6.4 | 16.1 | 0.00 | 0.00 | 0.00 | 72 | 1007.0 |
| 20260505220048 | 28 | 163 | 8.0 | 16.1 | 0.00 | 0.00 | 0.00 | 71 | 1007.1 |
| 20260505215549 | 28 | 192 | 3.2 | 14.5 | 0.00 | 0.00 | 0.00 | 71 | 1007.1 |
| 20260505215047 | 28 | 182 | 1.6 | 20.9 | 0.00 | 0.00 | 0.00 | 72 | 1007.1 |
| 20260505214551 | 28 | 157 | 8.0 | 20.9 | 0.00 | 0.00 | 0.00 | 71 | 1007.2 |
| 20260505214046 | 28 | 161 | 6.4 | 20.9 | 0.00 | 0.00 | 0.00 | 71 | 1007.2 |
| 20260505213545 | 28 | 188 | 4.8 | 20.9 | 0.00 | 0.00 | 0.00 | 71 | 1007.3 |
| 20260505213045 | 28 | 164 | 4.8 | 22.5 | 0.00 | 0.00 | 0.00 | 71 | 1007.4 |
| 20260505212544 | 28 | 153 | 6.4 | 27.4 | 0.00 | 0.00 | 0.00 | 72 | 1007.3 |
| 20260505212044 | 28 | 157 | 6.4 | 25.7 | 0.00 | 0.00 | 0.00 | 72 | 1007.4 |
| 20260505211543 | 28 | 162 | 8.0 | 17.7 | 0.00 | 0.00 | 0.00 | 72 | 1007.5 |
| 20260505211045 | 28 | 105 | 3.2 | 16.1 | 0.00 | 0.00 | 0.00 | 73 | 1007.6 |
| 20260505210642 | 28 | 165 | 4.8 | 16.1 | 0.00 | 0.00 | 0.00 | 73 | 1007.6 |
| 20260505210043 | 28 | 180 | 6.4 | 16.1 | 0.00 | 0.00 | 0.00 | 72 | 1007.7 |
| 20260505205541 | 28 | 169 | 4.8 | 19.3 | 0.00 | 0.00 | 0.00 | 72 | 1007.8 |
| 20260505205041 | 28 | 205 | 8.0 | 19.3 | 0.00 | 0.00 | 0.00 | 71 | 1007.9 |
| 20260505204542 | 28 | 250 | 6.4 | 19.3 | 0.00 | 0.00 | 0.00 | 70 | 1008.0 |
| 20260505204038 | 28 | 192 | 6.4 | 22.5 | 0.00 | 0.00 | 0.00 | 70 | 1008.1 |
| 20260505203543 | 28 | 211 | 4.8 | 16.1 | 0.00 | 0.00 | 0.00 | 70 | 1008.1 |
| 20260505203037 | 28 | 150 | 6.4 | 14.5 | 0.00 | 0.00 | 0.00 | 70 | 1008.1 |
| 20260505202539 | 28 | 219 | 4.8 | 12.9 | 0.00 | 0.00 | 0.00 | 71 | 1008.3 |
| 20260505202040 | 28 | 178 | 6.4 | 24.1 | 0.00 | 0.00 | 0.00 | 71 | 1008.3 |
| 20260505201536 | 28 | 200 | 4.8 | 24.1 | 0.00 | 0.00 | 0.00 | 70 | 1008.4 |
| 20260505201035 | 29 | 146 | 6.4 | 17.7 | 0.00 | 0.00 | 0.00 | 69 | 1008.4 |
| 20260505200535 | 29 | 161 | 4.8 | 19.3 | 0.00 | 0.00 | 0.00 | 68 | 1008.6 |
| 20260505200042 | 29 | 212 | 3.2 | 19.3 | 0.00 | 0.00 | 0.00 | 69 | 1008.5 |
| 20260505195535 | 29 | 200 | 4.8 | 16.1 | 0.00 | 0.00 | 0.00 | 70 | 1008.5 |
| 20260505195033 | 29 | 207 | 3.2 | 12.9 | 0.00 | 0.00 | 0.00 | 70 | 1008.6 |
| 20260505194532 | 28 | 202 | 3.2 | 17.7 | 0.00 | 0.00 | 0.00 | 71 | 1008.7 |
| 20260505194031 | 28 | 157 | 3.2 | 17.7 | 0.00 | 0.00 | 0.00 | 70 | 1008.7 |
| 20260505193530 | 28 | 188 | 4.8 | 12.9 | 0.00 | 0.00 | 0.00 | 71 | 1008.8 |
| 20260505193030 | 28 | 166 | 3.2 | 17.7 | 0.00 | 0.00 | 0.00 | 70 | 1008.8 |
| 20260505192533 | 28 | 196 | 4.8 | 22.5 | 0.00 | 0.00 | 0.00 | 70 | 1008.8 |
| 20260505192029 | 28 | 275 | 6.4 | 22.5 | 0.00 | 0.00 | 0.00 | 70 | 1008.8 |
| 20260505191529 | 28 | 205 | 3.2 | 16.1 | 0.00 | 0.00 | 0.00 | 70 | 1008.9 |
| 20260505191028 | 28 | 183 | 4.8 | 16.1 | 0.00 | 0.00 | 0.00 | 70 | 1008.9 |
| 20260505190527 | 28 | 190 | 1.6 | 20.9 | 0.00 | 0.00 | 0.00 | 72 | 1008.9 |
| 20260505190035 | 28 | 206 | 6.4 | 20.9 | 0.00 | 0.00 | 0.00 | 72 | 1008.9 |
| 20260505185527 | 27 | 227 | 6.4 | 22.5 | 0.00 | 0.00 | 0.00 | 73 | 1008.9 |
| 20260505185028 | 27 | 178 | 4.8 | 16.1 | 0.00 | 0.00 | 0.00 | 73 | 1009.1 |
| 20260505184527 | 27 | 140 | 1.6 | 16.1 | 0.00 | 0.00 | 0.00 | 72 | 1009.1 |
| 20260505184028 | 27 | 164 | 3.2 | 16.1 | 0.00 | 0.00 | 0.00 | 72 | 1009.1 |
| 20260505183526 | 28 | 157 | 4.8 | 16.1 | 0.00 | 0.00 | 0.00 | 72 | 1009.1 |
| 20260505183029 | 28 | 209 | 8.0 | 16.1 | 0.00 | 0.00 | 0.00 | 71 | 1009.1 |
| 20260505182526 | 28 | 153 | 3.2 | 20.9 | 0.00 | 0.00 | 0.00 | 71 | 1009.1 |
| 20260505182024 | 28 | 159 | 1.6 | 20.9 | 0.00 | 0.00 | 0.00 | 72 | 1009.2 |
| 20260505181523 | 27 | 246 | 3.2 | 14.5 | 0.00 | 0.00 | 0.00 | 73 | 1009.2 |
| 20260505181021 | 27 | 221 | 4.8 | 14.5 | 0.00 | 0.00 | 0.00 | 74 | 1009.3 |
| 20260505180521 | 27 | 160 | 1.6 | 17.7 | 0.00 | 0.00 | 0.00 | 75 | 1009.4 |
| 20260505180020 | 27 | 141 | 3.2 | 16.1 | 0.00 | 0.00 | 0.00 | 75 | 1009.4 |
| 20260505175519 | 27 | 180 | 6.4 | 14.5 | 0.00 | 0.00 | 0.00 | 75 | 1009.4 |
| 20260505175020 | 26 | 249 | 4.8 | 11.3 | 0.00 | 0.00 | 0.00 | 76 | 1009.5 |
| 20260505174519 | 26 | 257 | 1.6 | 11.3 | 0.00 | 0.00 | 0.00 | 78 | 1009.6 |
| 20260505174021 | 26 | 136 | 4.8 | 14.5 | 0.00 | 0.00 | 0.00 | 78 | 1009.7 |
| 20260505173517 | 26 | 179 | 4.8 | 14.5 | 0.00 | 0.00 | 0.00 | 77 | 1009.7 |
| 20260505173017 | 26 | 169 | 6.4 | 17.7 | 0.00 | 0.00 | 0.00 | 77 | 1009.8 |
| 20260505172519 | 26 | 158 | 6.4 | 17.7 | 0.00 | 0.00 | 0.00 | 77 | 1009.7 |
| 20260505172019 | 26 | 162 | 8.0 | 16.1 | 0.00 | 0.00 | 0.00 | 76 | 1009.7 |
| 20260505171522 | 26 | 164 | 4.8 | 20.9 | 0.00 | 0.00 | 0.00 | 76 | 1009.7 |
| 20260505171017 | 26 | 180 | 4.8 | 20.9 | 0.00 | 0.00 | 0.00 | 76 | 1009.7 |
| 20260505170516 | 26 | 167 | 6.4 | 16.1 | 0.00 | 0.00 | 0.00 | 76 | 1009.7 |
| 20260505170019 | 27 | 194 | 4.8 | 17.7 | 0.00 | 0.00 | 0.00 | 75 | 1009.8 |
| 20260505165516 | 27 | 147 | 1.6 | 17.7 | 0.00 | 0.00 | 0.00 | 76 | 1009.8 |
| 20260505165016 | 27 | 207 | 3.2 | 14.5 | 0.00 | 0.00 | 0.00 | 75 | 1009.8 |
| 20260505164515 | 26 | 200 | 4.8 | 14.5 | 0.00 | 0.00 | 0.00 | 76 | 1009.8 |
| 20260505164013 | 26 | 187 | 3.2 | 16.1 | 0.00 | 0.00 | 0.00 | 78 | 1009.8 |
| 20260505163512 | 26 | 167 | 6.4 | 16.1 | 0.00 | 0.00 | 0.00 | 79 | 1009.7 |
| 20260505163011 | 26 | 200 | 6.4 | 17.7 | 0.00 | 0.00 | 0.00 | 79 | 1009.7 |
| 20260505162509 | 25 | 173 | 3.2 | 17.7 | 0.00 | 0.00 | 0.00 | 80 | 1009.7 |
| 20260505162010 | 25 | 119 | 4.8 | 17.7 | 0.00 | 0.00 | 0.00 | 81 | 1009.8 |
| 20260505161509 | 25 | 203 | 6.4 | 22.5 | 0.00 | 0.00 | 0.00 | 81 | 1009.7 |
| 20260505161009 | 25 | 138 | 4.8 | 22.5 | 0.00 | 0.00 | 0.00 | 81 | 1009.7 |
| 20260505160509 | 25 | 163 | 6.4 | 17.7 | 0.00 | 0.00 | 0.00 | 81 | 1009.7 |
| 20260505153004 | 25 | 163 | 6.4 | 16.1 | 0.00 | 0.00 | 0.00 | 82 | 1009.4 |
| 20260505152503 | 25 | 169 | 8.0 | 19.3 | 0.00 | 0.00 | 0.00 | 82 | 1009.5 |
| 20260505152002 | 25 | 165 | 6.4 | 19.3 | 0.00 | 0.00 | 0.00 | 83 | 1009.5 |
| 20260505151503 | 25 | 194 | 3.2 | 14.5 | 0.00 | 0.00 | 0.00 | 83 | 1009.5 |
| 20260505151001 | 24 | 165 | 6.4 | 17.7 | 0.00 | 0.00 | 0.00 | 84 | 1009.6 |
| 20260505150600 | 24 | 173 | 3.2 | 17.7 | 0.00 | 0.00 | 0.00 | 84 | 1009.5 |
| 20260505140556 | 23 | 159 | 6.4 | 17.7 | 0.00 | 0.00 | 0.00 | 86 | 1009.2 |
| 20260505130105 | 22 | 142 | 4.8 | 12.9 | 0.00 | 0.00 | 0.00 | 89 | 1008.9 |
| 20260505124546 | 22 | 172 | 3.2 | 11.3 | 0.00 | 0.00 | 0.00 | 91 | 1009.1 |
| 20260505124039 | 21 | 173 | 4.8 | 11.3 | 0.00 | 0.00 | 0.00 | 91 | 1009.2 |
| 20260505123538 | 21 | 187 | 3.2 | 6.4 | 0.00 | 0.00 | 0.00 | 91 | 1009.1 |
| 20260505123043 | 21 | 178 | 1.6 | 8.0 | 0.00 | 0.00 | 0.00 | 91 | 1009.0 |
| 20260505122539 | 21 | 182 | 3.2 | 8.0 | 0.00 | 0.00 | 0.00 | 91 | 1009.0 |
| 20260505122036 | 21 | 180 | 1.6 | 9.7 | 0.00 | 0.00 | 0.00 | 91 | 1008.9 |
| 20260505121536 | 21 | 192 | 1.6 | 9.7 | 0.00 | 0.00 | 0.00 | 91 | 1008.9 |
| 20260505121036 | 21 | 198 | 3.2 | 8.0 | 0.00 | 0.00 | 0.00 | 91 | 1008.7 |
| 20260505120535 | 21 | 180 | 3.2 | 8.0 | 0.00 | 0.00 | 0.00 | 91 | 1008.7 |
| 20260505120035 | 21 | 171 | 3.2 | 9.7 | 0.00 | 0.00 | 0.00 | 91 | 1008.6 |
| 20260505115535 | 21 | 155 | 3.2 | 9.7 | 0.00 | 0.00 | 0.00 | 91 | 1008.6 |
| 20260505115039 | 21 | 174 | 3.2 | 11.3 | 0.00 | 0.00 | 0.00 | 91 | 1008.4 |
| 20260505114535 | 21 | 181 | 3.2 | 11.3 | 0.00 | 0.00 | 0.00 | 91 | 1008.6 |
| 20260505114035 | 21 | 207 | 4.8 | 11.3 | 0.00 | 0.00 | 0.00 | 91 | 1008.8 |
| 20260505113535 | 21 | 179 | 1.6 | 8.0 | 0.00 | 0.00 | 0.00 | 91 | 1008.9 |
| 20260505113033 | 21 | 166 | 3.2 | 9.7 | 0.00 | 0.00 | 0.00 | 91 | 1008.8 |
| 20260505112535 | 21 | 178 | 1.6 | 8.0 | 0.00 | 0.00 | 0.00 | 91 | 1008.9 |
| 20260505112033 | 21 | 178 | 0.0 | 8.0 | 0.00 | 0.00 | 0.00 | 91 | 1008.7 |
| 20260505111538 | 21 | 179 | 3.2 | 8.0 | 0.00 | 0.00 | 0.00 | 91 | 1008.5 |
| 20260505111033 | 21 | 175 | 1.6 | 11.3 | 0.00 | 0.00 | 0.00 | 91 | 1008.5 |
| 20260505110533 | 21 | 186 | 3.2 | 11.3 | 0.00 | 0.00 | 0.00 | 91 | 1008.4 |
| 20260505102031 | 20 | 152 | 0.0 | 4.8 | 0.00 | 0.00 | 0.00 | 91 | 1008.8 |
| 20260505101531 | 20 | 152 | 1.6 | 8.0 | 0.00 | 0.00 | 0.00 | 91 | 1008.7 |
| 20260505101029 | 20 | 152 | 1.6 | 8.0 | 0.00 | 0.00 | 0.00 | 91 | 1008.7 |
| 20260505100529 | 20 | 152 | 1.6 | 8.0 | 0.00 | 0.00 | 0.00 | 91 | 1008.8 |
| 20260505100031 | 20 | 152 | 0.0 | 8.0 | 0.00 | 0.00 | 0.00 | 90 | 1008.9 |
| 20260505095529 | 20 | 152 | 1.6 | 8.0 | 0.00 | 0.00 | 0.00 | 90 | 1009.0 |
| 20260505095028 | 20 | 152 | 0.0 | 8.0 | 0.00 | 0.00 | 0.00 | 90 | 1009.0 |
| 20260505094528 | 20 | 152 | 1.6 | 9.7 | 0.00 | 0.00 | 0.00 | 90 | 1008.8 |
| 20260505094028 | 20 | 152 | 3.2 | 9.7 | 0.00 | 0.00 | 0.00 | 90 | 1008.6 |
| 20260505093526 | 20 | 158 | 3.2 | 8.0 | 0.00 | 0.00 | 0.00 | 89 | 1008.7 |
| 20260505093026 | 20 | 158 | 3.2 | 9.7 | 0.00 | 0.00 | 0.00 | 89 | 1008.9 |
| 20260505092529 | 20 | 157 | 3.2 | 9.7 | 0.00 | 0.00 | 0.00 | 89 | 1008.9 |
| 20260505092024 | 20 | 156 | 1.6 | 8.0 | 0.00 | 0.00 | 0.00 | 89 | 1008.9 |
| 20260505091524 | 20 | 156 | 3.2 | 8.0 | 0.00 | 0.00 | 0.00 | 89 | 1009.0 |
| 20260505091028 | 20 | 156 | 3.2 | 8.0 | 0.00 | 0.00 | 0.00 | 89 | 1009.1 |
| 20260505090524 | 20 | 156 | 1.6 | 9.7 | 0.00 | 0.00 | 0.00 | 89 | 1009.2 |
| 20260505090024 | 20 | 156 | 3.2 | 9.7 | 0.00 | 0.00 | 0.00 | 89 | 1009.1 |
| 20260505085523 | 20 | 169 | 1.6 | 8.0 | 0.00 | 0.00 | 0.00 | 89 | 1009.0 |
| 20260505085023 | 20 | 169 | 1.6 | 8.0 | 0.00 | 0.00 | 0.00 | 88 | 1009.1 |
| 20260505084526 | 20 | 164 | 1.6 | 8.0 | 0.00 | 0.00 | 0.00 | 89 | 1009.1 |
| 20260505084023 | 20 | 177 | 3.2 | 8.0 | 0.00 | 0.00 | 0.00 | 89 | 1009.1 |
| 20260505083520 | 20 | 184 | 1.6 | 4.8 | 0.00 | 0.00 | 0.00 | 89 | 1009.2 |
| 20260505083020 | 20 | 184 | 1.6 | 4.8 | 0.00 | 0.00 | 0.00 | 89 | 1009.3 |
| 20260505082519 | 20 | 184 | 0.0 | 4.8 | 0.00 | 0.00 | 0.00 | 88 | 1009.4 |
| 20260505082019 | 20 | 184 | 1.6 | 4.8 | 0.00 | 0.00 | 0.00 | 88 | 1009.3 |
| 20260505081529 | 20 | 184 | 0.0 | 8.0 | 0.00 | 0.00 | 0.00 | 88 | 1009.4 |
| 20260505081019 | 20 | 184 | 3.2 | 8.0 | 0.00 | 0.00 | 0.00 | 88 | 1009.4 |
| 20260505080521 | 20 | 163 | 1.6 | 8.0 | 0.00 | 0.00 | 0.00 | 88 | 1009.4 |
| 20260505080021 | 20 | 163 | 3.2 | 8.0 | 0.00 | 0.00 | 0.00 | 88 | 1009.4 |
| 20260505075517 | 20 | 163 | 1.6 | 8.0 | 0.00 | 0.00 | 0.00 | 87 | 1009.6 |
| 20260505075019 | 20 | 163 | 1.6 | 8.0 | 0.00 | 0.00 | 0.00 | 87 | 1009.6 |
| 20260505074516 | 20 | 163 | 3.2 | 9.7 | 0.00 | 0.00 | 0.00 | 87 | 1009.6 |
| 20260505074016 | 20 | 163 | 3.2 | 11.3 | 0.00 | 0.00 | 0.00 | 87 | 1009.6 |
| 20260505073515 | 20 | 148 | 1.6 | 11.3 | 0.00 | 0.00 | 0.00 | 87 | 1009.6 |
| 20260505073014 | 20 | 159 | 3.2 | 9.7 | 0.00 | 0.00 | 0.00 | 87 | 1009.6 |
| 20260505072515 | 20 | 198 | 3.2 | 11.3 | 0.00 | 0.00 | 0.00 | 87 | 1009.7 |
| 20260505072014 | 20 | 188 | 1.6 | 11.3 | 0.00 | 0.00 | 0.00 | 86 | 1009.6 |
| 20260505071526 | 20 | 181 | 4.8 | 12.9 | 0.00 | 0.00 | 0.00 | 86 | 1009.6 |
| 20260505071013 | 20 | 155 | 4.8 | 12.9 | 0.00 | 0.00 | 0.00 | 86 | 1009.7 |
| 20260505070512 | 20 | 148 | 3.2 | 9.7 | 0.00 | 0.00 | 0.00 | 86 | 1009.8 |
| 20260505070012 | 20 | 184 | 3.2 | 12.9 | 0.00 | 0.00 | 0.00 | 86 | 1009.9 |
| 20260505065510 | 20 | 161 | 4.8 | 14.5 | 0.00 | 0.00 | 0.00 | 86 | 1010.0 |
| 20260505065009 | 20 | 171 | 4.8 | 14.5 | 0.00 | 0.00 | 0.00 | 85 | 1010.1 |
| 20260505064519 | 20 | 167 | 3.2 | 12.9 | 0.00 | 0.00 | 0.00 | 85 | 1010.0 |
| 20260505064008 | 20 | 158 | 4.8 | 12.9 | 0.00 | 0.00 | 0.00 | 85 | 1010.1 |
| 20260505063507 | 20 | 184 | 4.8 | 12.9 | 0.00 | 0.00 | 0.00 | 85 | 1010.2 |
| 20260505063013 | 20 | 157 | 4.8 | 12.9 | 0.00 | 0.00 | 0.00 | 85 | 1010.4 |
| 20260505062506 | 21 | 192 | 3.2 | 11.3 | 0.00 | 0.00 | 0.00 | 84 | 1010.4 |
| 20260505062006 | 21 | 153 | 3.2 | 11.3 | 0.00 | 0.00 | 0.00 | 84 | 1010.4 |
| 20260505061509 | 21 | 175 | 6.4 | 14.5 | 0.00 | 0.00 | 0.00 | 84 | 1010.4 |
| 20260505061008 | 21 | 160 | 6.4 | 14.5 | 0.00 | 0.00 | 0.00 | 84 | 1010.7 |
| 20260505060508 | 21 | 176 | 4.8 | 12.9 | 0.00 | 0.00 | 0.00 | 84 | 1010.7 |
| 20260505060005 | 21 | 169 | 6.4 | 11.3 | 0.00 | 0.00 | 0.00 | 84 | 1010.6 |
| 20260505055504 | 21 | 175 | 4.8 | 11.3 | 0.00 | 0.00 | 0.00 | 84 | 1010.5 |
| 20260505055004 | 21 | 136 | 4.8 | 12.9 | 0.00 | 0.00 | 0.00 | 84 | 1010.5 |
| 20260505054504 | 21 | 168 | 4.8 | 12.9 | 0.00 | 0.00 | 0.00 | 83 | 1010.5 |
| 20260505054003 | 21 | 177 | 6.4 | 16.1 | 0.00 | 0.00 | 0.00 | 83 | 1010.4 |
| 20260505053501 | 21 | 151 | 6.4 | 14.5 | 0.00 | 0.00 | 0.00 | 83 | 1010.5 |
| 20260505053107 | 21 | 185 | 4.8 | 14.5 | 0.00 | 0.00 | 0.00 | 83 | 1010.8 |
| 20260505052559 | 21 | 171 | 4.8 | 12.9 | 0.00 | 0.00 | 0.00 | 83 | 1011.0 |
| 20260505052103 | 21 | 172 | 6.4 | 12.9 | 0.00 | 0.00 | 0.00 | 83 | 1011.0 |
| 20260505051559 | 21 | 184 | 3.2 | 14.5 | 0.00 | 0.00 | 0.00 | 83 | 1011.0 |
| 20260505051059 | 21 | 165 | 1.6 | 9.7 | 0.00 | 0.00 | 0.00 | 82 | 1011.0 |
| 20260505050557 | 21 | 150 | 1.6 | 9.7 | 0.00 | 0.00 | 0.00 | 82 | 1011.0 |
| 20260505041556 | 21 | 163 | 4.8 | 9.7 | 0.00 | 0.00 | 0.00 | 80 | 1011.0 |
| 20260505041055 | 21 | 161 | 3.2 | 9.7 | 0.00 | 0.00 | 0.00 | 80 | 1011.0 |
| 20260505040557 | 21 | 154 | 4.8 | 16.1 | 0.00 | 0.00 | 0.00 | 80 | 1011.1 |
| 20260505040055 | 21 | 183 | 1.6 | 16.1 | 0.00 | 0.00 | 0.00 | 80 | 1011.2 |
| 20260505035554 | 21 | 176 | 6.4 | 16.1 | 0.00 | 0.00 | 0.00 | 79 | 1011.2 |
| 20260505035054 | 21 | 174 | 4.8 | 14.5 | 0.00 | 0.00 | 0.00 | 79 | 1011.1 |
| 20260505034555 | 21 | 155 | 6.4 | 14.5 | 0.00 | 0.00 | 0.00 | 79 | 1011.2 |
| 20260505034054 | 21 | 150 | 3.2 | 14.5 | 0.00 | 0.00 | 0.00 | 79 | 1011.4 |
| 20260505033554 | 21 | 133 | 3.2 | 12.9 | 0.00 | 0.00 | 0.00 | 78 | 1011.3 |
| 20260505033054 | 21 | 187 | 4.8 | 14.5 | 0.00 | 0.00 | 0.00 | 78 | 1011.3 |
| 20260505032554 | 21 | 161 | 8.0 | 12.9 | 0.00 | 0.00 | 0.00 | 78 | 1011.4 |
| 20260505032053 | 21 | 138 | 4.8 | 14.5 | 0.00 | 0.00 | 0.00 | 78 | 1011.5 |
| 20260505031555 | 22 | 163 | 3.2 | 14.5 | 0.00 | 0.00 | 0.00 | 78 | 1011.4 |
| 20260505031053 | 22 | 163 | 9.7 | 14.5 | 0.00 | 0.00 | 0.00 | 78 | 1011.2 |
| 20260505030553 | 22 | 186 | 6.4 | 16.1 | 0.00 | 0.00 | 0.00 | 77 | 1011.2 |
| 20260505030053 | 22 | 162 | 8.0 | 16.1 | 0.00 | 0.00 | 0.00 | 77 | 1011.3 |
| 20260505025553 | 22 | 205 | 8.0 | 12.9 | 0.00 | 0.00 | 0.00 | 77 | 1011.3 |
| 20260505025054 | 22 | 171 | 4.8 | 14.5 | 0.00 | 0.00 | 0.00 | 76 | 1011.3 |
| 20260505024553 | 22 | 157 | 8.0 | 17.7 | 0.00 | 0.00 | 0.00 | 76 | 1011.3 |
| 20260505024052 | 22 | 142 | 9.7 | 17.7 | 0.00 | 0.00 | 0.00 | 76 | 1011.4 |
| 20260505023551 | 22 | 141 | 8.0 | 17.7 | 0.00 | 0.00 | 0.00 | 76 | 1011.3 |
| 20260505023057 | 22 | 162 | 9.7 | 17.7 | 0.00 | 0.00 | 0.00 | 76 | 1011.3 |
| 20260505022553 | 22 | 177 | 4.8 | 16.1 | 0.00 | 0.00 | 0.00 | 75 | 1011.2 |
| 20260505022050 | 22 | 150 | 6.4 | 22.5 | 0.00 | 0.00 | 0.00 | 75 | 1011.1 |
| 20260505021552 | 22 | 147 | 11.3 | 22.5 | 0.00 | 0.00 | 0.00 | 74 | 1010.9 |
| 20260505021050 | 22 | 155 | 4.8 | 17.7 | 0.00 | 0.00 | 0.00 | 74 | 1011.1 |
| 20260505020550 | 22 | 142 | 6.4 | 17.7 | 0.00 | 0.00 | 0.00 | 74 | 1011.0 |
| 20260505020055 | 22 | 142 | 8.0 | 17.7 | 0.00 | 0.00 | 0.00 | 74 | 1010.9 |
| 20260505015550 | 22 | 181 | 9.7 | 19.3 | 0.00 | 0.00 | 0.00 | 73 | 1010.9 |
| 20260505015052 | 23 | 163 | 9.7 | 19.3 | 0.00 | 0.00 | 0.00 | 73 | 1011.0 |
| 20260505014550 | 23 | 156 | 9.7 | 19.3 | 0.00 | 0.00 | 0.00 | 73 | 1010.9 |
| 20260505014049 | 23 | 190 | 8.0 | 27.4 | 0.00 | 0.00 | 0.00 | 73 | 1010.9 |